Location: Stoke Bliss
(52.2667°N, 2.5167°W)
Time: 02:01:36
(UTC+00:00)

Cosmos 2366 rocket - Pass Details

Date: 03 March 2021
Orbit: 955 x 997 km, 82.9° (Epoch: 11 April)

Event Time Altitude Azimuth Distance (km) Brightness Sun altitude
Rises 20:07:01 0° 185° (S) 3,685 6.9 -21.0°
Reaches altitude 10° 20:09:30 10° 185° (S) 2,746 6.2 -21.4°
Maximum altitude 20:15:50 84° 98° (E) 1,008 3.9 -22.3°
Drops below altitude 10° 20:22:14 10° 11° (NNE) 2,779 6.5 -23.2°
Sets 20:24:47 0° 11° (NNE) 3,733 7.2 -23.6°
